K5YNC Weather Reports


Display with metric or nautical units.
time (UTC)temp
F
wind
direction
speed
MPH
gust
MPH
rain 1hr
in
rain 24hr
in
rain mn
in
humidity
%
barometer
mb
20260506200805 62 1 2.0 2.0 0.00 0.00 0.00 65 1017.1
20260506200301 64 55 2.0 3.0 0.00 0.00 0.00 61 1016.9
20260506195757 62 35 1.0 2.0 0.00 0.00 0.00 66 1016.8
20260506195254 63 20 3.0 4.0 0.00 0.00 0.00 63 1016.8
20260506194752 62 100 1.0 1.0 0.00 0.00 0.00 64 1016.8
20260506194248 61 324 2.0 3.0 0.00 0.00 0.00 65 1016.7
20260506193746 61 75 1.0 2.0 0.00 0.00 0.00 66 1016.5
20260506193242 62 323 2.0 4.0 0.00 0.00 0.00 65 1016.3
20260506192738 62 134 4.0 4.0 0.00 0.00 0.00 64 1016.3
20260506192235 62 330 3.0 4.0 0.00 0.00 0.00 64 1016.2
20260506191732 62 225 1.0 2.0 0.00 0.00 0.00 63 1016.4
20260506191228 61 323 2.0 3.0 0.00 0.00 0.00 64 1016.4
20260506190726 61 40 2.0 3.0 0.00 0.00 0.00 63 1016.7
20260506190222 62 33 2.0 3.0 0.00 0.00 0.00 64 1016.6
20260506185719 62 334 4.0 7.0 0.00 0.00 0.00 63 1016.6
20260506185215 61 266 4.0 6.0 0.00 0.00 0.00 64 1016.8
20260506184713 61 29 4.0 4.0 0.00 0.00 0.00 65 1016.6
20260506184210 60 14 8.0 11.0 0.00 0.00 0.00 64 1016.4
20260506183707 60 293 3.0 3.0 0.00 0.00 0.00 65 1016.8
20260506183203 60 71 2.0 3.0 0.00 0.00 0.00 66 1016.6
20260506182700 59 17 1.0 2.0 0.00 0.00 0.00 68 1016.6
20260506182157 59 273 3.0 3.0 0.00 0.00 0.00 67 1016.9
20260506181655 59 1 4.0 7.0 0.00 0.00 0.00 67 1017.3
20260506181152 59 50 2.0 3.0 0.00 0.00 0.00 67 1017.1
20260506180649 58 64 3.0 4.0 0.00 0.00 0.00 67 1017.1
20260506180145 59 53 1.0 1.0 0.00 0.00 0.00 67 1017.4
20260506175642 59 33 3.0 3.0 0.00 0.00 0.00 66 1017.2
20260506175139 59 329 3.0 3.0 0.00 0.00 0.00 66 1017.4
20260506174637 58 335 4.0 4.0 0.00 0.00 0.00 67 1017.5
20260506174134 59 313 4.0 6.0 0.00 0.00 0.00 66 1017.5
20260506173631 59 45 3.0 4.0 0.00 0.00 0.00 66 1017.5
20260506173128 58 18 3.0 4.0 0.00 0.00 0.00 67 1017.3
20260506172625 58 352 4.0 6.0 0.00 0.00 0.00 67 1017.5
20260506172121 58 28 5.0 7.0 0.00 0.00 0.00 68 1017.2
20260506171619 58 73 4.0 7.0 0.00 0.00 0.00 66 1017.3
20260506171117 57 24 4.0 7.0 0.00 0.00 0.00 69 1017.3
20260506170615 57 6 6.0 8.0 0.00 0.00 0.00 68 1017.2
20260506170111 57 11 4.0 7.0 0.00 0.00 0.00 69 1017.4
20260506165609 57 354 4.0 8.0 0.00 0.00 0.00 69 1017.6
20260506165105 57 12 5.0 7.0 0.00 0.00 0.00 68 1017.7
20260506164603 57 325 5.0 7.0 0.00 0.00 0.00 68 1017.3
20260506164100 57 306 1.0 1.0 0.00 0.00 0.00 70 1017.3
20260506163555 58 312 3.0 4.0 0.00 0.00 0.00 67 1017.4
20260506163052 58 24 4.0 6.0 0.00 0.00 0.00 67 1017.4
20260506162548 58 40 5.0 6.0 0.00 0.00 0.00 68 1017.7
20260506162045 57 59 1.0 1.0 0.00 0.00 0.00 70 1018.2
20260506161543 56 338 5.0 6.0 0.00 0.00 0.00 69 1018.3
20260506161039 57 179 1.0 1.0 0.00 0.00 0.00 69 1018.2
20260506160537 56 60 1.0 1.0 0.00 0.00 0.00 70 1018.2
20260506160034 56 162 1.0 1.0 0.00 0.00 0.00 70 1018.5
20260506155532 55 114 1.0 1.0 0.00 0.00 0.00 71 1018.7
20260506153703 54 36 2.0 2.0 0.00 0.00 0.00 72 1017.9
20260506153201 55 335 4.0 4.0 0.00 0.00 0.00 72 1017.6
20260506152658 54 123 0.0 0.0 0.00 0.00 0.00 72 1018.1
20260506152155 54 27 4.0 6.0 0.00 0.00 0.00 72 1017.9
20260506151654 54 308 4.0 6.0 0.00 0.00 0.00 72 1017.6
20260506151150 53 166 1.0 2.0 0.00 0.00 0.00 73 1017.8
20260506150647 53 10 3.0 3.0 0.00 0.00 0.00 73 1017.6
20260506150144 53 39 2.0 3.0 0.00 0.00 0.00 73 1017.6
20260506145641 53 340 3.0 3.0 0.00 0.00 0.00 73 1017.7
20260506145137 53 341 5.0 6.0 0.00 0.00 0.00 72 1017.9
20260506144635 53 338 3.0 4.0 0.00 0.00 0.00 73 1017.5
20260506144131 52 354 6.0 7.0 0.00 0.00 0.00 74 1017.6
20260506143629 52 342 4.0 7.0 0.00 0.00 0.00 74 1017.8
20260506143127 52 207 1.0 2.0 0.00 0.00 0.00 75 1017.9
20260506142625 52 23 1.0 2.0 0.00 0.00 0.00 75 1017.8
20260506142123 52 341 3.0 3.0 0.00 0.00 0.00 74 1017.9
20260506141620 52 5 5.0 7.0 0.00 0.00 0.00 74 1017.5
20260506141119 52 304 4.0 6.0 0.00 0.00 0.00 74 1017.4
20260506140616 52 352 3.0 3.0 0.00 0.00 0.00 73 1017.1
20260506140113 52 77 3.0 4.0 0.00 0.00 0.00 74 1017.1
20260506135610 52 337 4.0 6.0 0.00 0.00 0.00 74 1016.9
20260506135106 52 336 4.0 6.0 0.00 0.00 0.00 75 1016.7
20260506134602 52 173 2.0 3.0 0.00 0.00 0.00 75 1016.7
20260506134058 52 302 5.0 8.0 0.00 0.00 0.00 75 1016.8
20260506133556 52 244 3.0 3.0 0.00 0.00 0.00 75 1016.7
20260506133053 52 105 2.0 4.0 0.00 0.00 0.00 75 1016.6
20260506132550 51 320 4.0 8.0 0.00 0.00 0.00 75 1016.9
20260506132047 51 308 2.0 2.0 0.00 0.00 0.00 75 1016.6
20260506131544 51 8 5.0 9.0 0.00 0.00 0.00 75 1016.6
20260506131040 51 309 3.0 3.0 0.00 0.00 0.00 76 1016.5
20260506130538 51 7 2.0 2.0 0.00 0.00 0.00 76 1016.6
20260506130035 51 42 1.0 2.0 0.00 0.00 0.00 76 1016.4
20260506125533 51 359 2.0 2.0 0.00 0.00 0.00 77 1016.4
20260506125031 51 44 1.0 2.0 0.00 0.00 0.00 77 1016.2
20260506124528 51 318 1.0 2.0 0.00 0.00 0.00 77 1015.9
20260506124026 51 318 3.0 6.0 0.00 0.00 0.00 76 1016.2
20260506123524 51 282 1.0 2.0 0.00 0.00 0.00 77 1015.7
20260506123021 51 6 1.0 2.0 0.00 0.00 0.00 77 1015.8
20260506122518 51 36 5.0 7.0 0.00 0.00 0.00 77 1016.0
20260506122016 51 353 3.0 3.0 0.00 0.00 0.00 77 1015.9
20260506121513 51 348 2.0 4.0 0.00 0.00 0.00 78 1016.2
20260506121009 51 356 2.0 2.0 0.00 0.00 0.00 78 1015.8
20260506120508 51 352 2.0 2.0 0.00 0.00 0.00 78 1015.7
20260506120005 51 27 2.0 3.0 0.00 0.00 0.00 78 1015.9
20260506115502 51 17 2.0 3.0 0.00 0.00 0.00 79 1015.7
20260506115001 50 236 2.0 2.0 0.00 0.00 0.00 79 1015.9
20260506114457 50 354 3.0 6.0 0.00 0.00 0.00 79 1015.6
20260506113956 50 63 2.0 3.0 0.00 0.00 0.00 79 1015.8
20260506113453 50 348 3.0 4.0 0.00 0.00 0.00 80 1015.6
20260506112950 50 21 3.0 3.0 0.00 0.00 0.00 80 1015.6
20260506112447 50 352 4.0 4.0 0.00 0.00 0.00 80 1015.6
20260506111944 50 43 2.0 2.0 0.00 0.00 0.00 81 1015.2
20260506111443 50 321 3.0 4.0 0.00 0.00 0.00 81 1015.3
20260506110939 50 103 1.0 1.0 0.00 0.00 0.00 81 1015.5
20260506110437 50 8 2.0 3.0 0.00 0.00 0.00 82 1015.3
20260506105933 50 308 4.0 4.0 0.00 0.00 0.00 82 1015.4
20260506105430 50 340 3.0 3.0 0.00 0.00 0.00 82 1015.3
20260506104927 50 343 4.0 7.0 0.00 0.00 0.00 82 1015.3
20260506104425 50 346 5.0 7.0 0.00 0.00 0.00 82 1015.1
20260506103923 50 353 4.0 6.0 0.00 0.00 0.00 82 1015.3
20260506103420 50 13 4.0 7.0 0.00 0.00 0.00 82 1015.0
20260506102917 50 215 3.0 4.0 0.00 0.00 0.00 82 1015.0
20260506102415 50 333 3.0 4.0 0.00 0.00 0.00 82 1015.1
20260506101912 50 334 5.0 7.0 0.00 0.00 0.00 82 1015.1
20260506101408 50 344 4.0 7.0 0.00 0.00 0.00 83 1014.8
20260506100906 50 322 3.0 4.0 0.00 0.00 0.00 82 1014.8
20260506100404 50 266 3.0 4.0 0.00 0.00 0.00 82 1014.6
20260506095902 50 329 2.0 2.0 0.00 0.00 0.00 82 1014.6
20260506095400 50 324 3.0 4.0 0.00 0.00 0.00 81 1014.8
20260506094856 50 8 4.0 6.0 0.00 0.00 0.00 81 1014.8
20260506094355 50 2 5.0 7.0 0.00 0.00 0.00 81 1014.4
20260506093852 50 10 6.0 8.0 0.00 0.00 0.00 81 1014.4
20260506093350 51 2 6.0 8.0 0.00 0.00 0.00 80 1014.6
20260506092847 51 2 2.0 6.0 0.00 0.00 0.00 80 1014.4
20260506092345 51 86 3.0 3.0 0.00 0.00 0.00 79 1014.1
20260506091841 51 336 5.0 7.0 0.00 0.00 0.00 79 1013.8
20260506091339 51 37 3.0 3.0 0.00 0.00 0.00 79 1014.0
20260506090836 51 337 2.0 3.0 0.00 0.00 0.00 79 1013.9
20260506090334 51 328 4.0 6.0 0.00 0.00 0.00 79 1013.8
20260506085830 51 356 2.0 2.0 0.00 0.00 0.00 79 1013.7
20260506085326 51 352 2.0 3.0 0.00 0.00 0.00 79 1013.8
20260506084823 51 255 1.0 2.0 0.00 0.00 0.00 79 1013.7
20260506084320 52 331 2.0 3.0 0.00 0.00 0.00 79 1013.7
20260506083817 52 25 2.0 4.0 0.00 0.00 0.00 78 1013.5
20260506083314 52 190 2.0 2.0 0.00 0.00 0.00 78 1013.4
20260506082812 52 356 2.0 2.0 0.00 0.00 0.00 78 1013.4
20260506082308 52 295 2.0 3.0 0.00 0.00 0.00 78 1013.3
20260506081805 52 348 2.0 2.0 0.00 0.00 0.00 77 1013.6
20260506081302 52 259 4.0 4.0 0.00 0.00 0.00 77 1013.4
20260506080800 52 326 2.0 3.0 0.00 0.00 0.00 77 1013.2
20260506080256 52 55 2.0 2.0 0.00 0.00 0.00 78 1013.5
20260506073240 52 306 3.0 4.0 0.00 0.00 0.00 78 1013.4
20260506072737 52 331 4.0 4.0 0.00 0.00 0.00 78 1013.4
20260506072235 53 287 2.0 2.0 0.00 0.00 0.00 77 1013.2
20260506071732 53 29 2.0 3.0 0.00 0.00 0.00 77 1013.1
20260506071230 52 7 1.0 1.0 0.00 0.00 0.00 77 1013.4
20260506070727 52 0 3.0 4.0 0.00 0.00 0.00 77 1013.0
20260506070224 53 351 2.0 2.0 0.00 0.00 0.00 78 1013.2
20260506062200 53 14 3.0 6.0 0.00 0.00 0.00 78 1012.5
20260506061656 53 327 1.0 2.0 0.00 0.00 0.00 78 1012.7
20260506061154 53 46 4.0 6.0 0.00 0.00 0.00 78 1013.0
20260506060653 53 311 4.0 4.0 0.00 0.00 0.00 78 1012.9
20260506060149 53 79 2.0 3.0 0.00 0.00 0.00 78 1012.9
20260506051121 54 4 3.0 4.0 0.00 0.00 0.00 77 1012.8
20260506050619 54 37 3.0 6.0 0.00 0.00 0.00 77 1012.9
20260506050116 54 48 3.0 4.0 0.00 0.00 0.00 77 1013.0
20260506045109 54 323 4.0 4.0 0.00 0.00 0.00 77 1013.0
20260506044607 54 330 4.0 4.0 0.00 0.00 0.00 77 1012.9
20260506044104 54 340 4.0 7.0 0.00 0.00 0.00 77 1013.1
20260506043601 55 303 3.0 7.0 0.00 0.00 0.00 77 1012.9
20260506043059 54 2 3.0 4.0 0.00 0.00 0.00 77 1013.0
20260506042558 55 39 4.0 7.0 0.00 0.00 0.00 77 1013.2
20260506042056 55 17 3.0 4.0 0.00 0.00 0.00 78 1013.1
20260506041554 55 356 3.0 3.0 0.00 0.00 0.00 78 1013.2
20260506041050 55 303 3.0 3.0 0.00 0.00 0.00 78 1013.0
20260506040549 55 15 3.0 3.0 0.00 0.00 0.00 78 1013.2
20260506040044 55 46 3.0 4.0 0.00 0.00 0.00 78 1012.9
20260506035542 55 12 4.0 7.0 0.00 0.00 0.00 78 1012.8
20260506035038 55 36 2.0 3.0 0.00 0.00 0.00 78 1012.8
20260506034536 55 21 2.0 3.0 0.00 0.00 0.00 78 1012.9
20260506034032 55 333 4.0 4.0 0.00 0.00 0.00 78 1013.1
20260506033530 55 20 3.0 4.0 0.00 0.00 0.00 78 1013.0
20260506033027 55 99 2.0 2.0 0.00 0.00 0.00 79 1013.0
20260506032524 55 341 2.0 2.0 0.00 0.00 0.00 79 1013.1
20260506032020 55 352 5.0 6.0 0.00 0.00 0.00 78 1013.1
20260506031518 55 321 2.0 2.0 0.00 0.00 0.00 79 1012.9
20260506031015 55 327 1.0 2.0 0.00 0.00 0.00 79 1012.9
20260506030513 55 341 3.0 4.0 0.00 0.00 0.00 79 1012.6
20260506030010 56 331 4.0 4.0 0.00 0.00 0.00 79 1012.5
20260506025507 56 352 3.0 4.0 0.00 0.00 0.00 79 1012.4
20260506025003 56 21 2.0 2.0 0.00 0.00 0.00 80 1012.3
20260506024500 56 343 5.0 7.0 0.00 0.00 0.00 80 1012.3
20260506023956 56 119 2.0 3.0 0.00 0.00 0.00 80 1012.3
20260506023453 56 354 2.0 2.0 0.00 0.00 0.00 80 1011.6
20260506022949 56 25 2.0 2.0 0.00 0.00 0.00 80 1011.3
20260506022447 57 106 1.0 2.0 0.00 0.00 0.00 80 1011.4
20260506021945 57 347 2.0 3.0 0.00 0.00 0.00 80 1011.1
20260506021442 57 322 3.0 4.0 0.00 0.00 0.00 80 1010.9
20260506020939 57 52 5.0 7.0 0.00 0.00 0.00 80 1011.0
20260506020437 57 173 2.0 3.0 0.00 0.00 0.00 80 1010.2
20260506015934 57 306 6.0 7.0 0.00 0.00 0.00 80 1010.2
20260506015431 58 102 4.0 6.0 0.00 0.00 0.00 80 1010.2
20260506014928 58 26 5.0 6.0 0.00 0.00 0.00 80 1010.2
20260506014425 58 5 4.0 4.0 0.00 0.00 0.00 80 1010.0
20260506013921 58 352 3.0 4.0 0.00 0.00 0.00 80 1010.2
20260506013420 59 99 4.0 7.0 0.00 0.00 0.00 79 1009.9
20260506012916 59 202 3.0 4.0 0.00 0.00 0.00 79 1010.0
20260506012412 60 351 4.0 4.0 0.00 0.00 0.00 79 1009.6
20260506011909 60 276 3.0 4.0 0.00 0.00 0.00 78 1009.8
20260506011406 60 44 4.0 7.0 0.00 0.00 0.00 78 1009.7
20260506010903 60 285 5.0 7.0 0.00 0.00 0.00 78 1009.4
20260506010402 61 289 4.0 8.0 0.00 0.00 0.00 77 1009.5
20260506005858 61 351 4.0 6.0 0.00 0.00 0.00 77 1009.4
20260506005355 61 303 2.0 2.0 0.00 0.00 0.00 77 1009.2
20260506004851 62 311 4.0 4.0 0.00 0.00 0.00 77 1009.2
20260506004349 62 316 2.0 3.0 0.00 0.00 0.00 77 1009.6
20260506003845 62 75 2.0 3.0 0.00 0.00 0.00 77 1009.5
20260506003341 62 90 3.0 4.0 0.00 0.00 0.00 76 1009.4
20260506002838 62 282 5.0 6.0 0.00 0.00 0.00 76 1009.2
20260506002334 63 268 3.0 3.0 0.00 0.00 0.00 75 1008.9
20260506001829 63 95 3.0 4.0 0.00 0.00 0.00 76 1009.3
20260506001327 63 354 3.0 3.0 0.00 0.00 0.00 75 1009.4
20260506000824 64 310 3.0 6.0 0.00 0.00 0.00 75 1009.3
20260506000323 64 332 6.0 7.0 0.00 0.00 0.00 74 1009.0
20260505235818 64 309 2.0 4.0 0.00 0.00 0.00 74 1009.1
20260505235316 64 32 4.0 4.0 0.00 0.00 0.00 74 1008.9
20260505234813 64 0 4.0 4.0 0.00 0.00 0.00 74 1008.5
20260505234310 65 20 4.0 6.0 0.00 0.00 0.00 73 1008.7
20260505233807 65 325 5.0 6.0 0.00 0.00 0.00 74 1008.8
20260505233305 65 329 2.0 2.0 0.00 0.00 0.00 74 1008.9
20260505232802 65 279 3.0 4.0 0.00 0.00 0.00 73 1009.2
20260505232259 65 265 2.0 3.0 0.00 0.00 0.00 74 1009.0
20260505231755 66 289 7.0 9.0 0.00 0.00 0.00 74 1008.7
20260505231254 66 311 4.0 6.0 0.00 0.00 0.00 73 1008.8
20260505230752 66 347 3.0 6.0 0.00 0.00 0.00 73 1008.8
20260505230249 66 41 2.0 2.0 0.00 0.00 0.00 73 1008.9
20260505225745 67 216 4.0 6.0 0.00 0.00 0.00 72 1008.8
20260505225243 67 349 4.0 4.0 0.00 0.00 0.00 72 1008.5
20260505224737 68 278 2.0 3.0 0.00 0.00 0.00 72 1008.8
20260505224235 68 313 3.0 3.0 0.00 0.00 0.00 72 1008.6
20260505223733 68 0 5.0 7.0 0.00 0.00 0.00 71 1008.6
20260505223229 68 342 4.0 4.0 0.00 0.00 0.00 71 1008.6
20260505222725 69 356 3.0 4.0 0.00 0.00 0.00 71 1008.6
20260505222221 69 322 3.0 3.0 0.00 0.00 0.00 70 1008.6
20260505221719 69 327 2.0 4.0 0.00 0.00 0.00 70 1008.6
20260505221215 69 329 3.0 4.0 0.00 0.00 0.00 70 1008.4
20260505220712 70 269 4.0 6.0 0.00 0.00 0.00 70 1008.3
20260505220210 70 339 2.0 3.0 0.00 0.00 0.00 71 1008.1
20260505215708 70 313 4.0 7.0 0.00 0.00 0.00 69 1008.0
20260505215205 70 190 2.0 2.0 0.00 0.00 0.00 70 1008.1
20260505214703 71 264 4.0 6.0 0.00 0.00 0.00 70 1008.0
20260505214200 71 3 4.0 6.0 0.00 0.00 0.00 70 1008.1
20260505213657 72 318 3.0 4.0 0.00 0.00 0.00 69 1007.7
20260505213154 73 304 3.0 3.0 0.00 0.00 0.00 67 1007.9
20260505212650 73 15 2.0 2.0 0.00 0.00 0.00 68 1007.6
20260505212148 72 303 4.0 7.0 0.00 0.00 0.00 68 1007.7
20260505211645 72 327 5.0 6.0 0.00 0.00 0.00 68 1007.8
20260505211142 72 36 2.0 3.0 0.00 0.00 0.00 69 1007.8
20260505210638 72 347 5.0 8.0 0.00 0.00 0.00 68 1008.0
20260505210135 72 48 4.0 4.0 0.00 0.00 0.00 69 1007.9
20260505205633 72 354 3.0 3.0 0.00 0.00 0.00 69 1008.1
20260505205131 73 348 4.0 7.0 0.00 0.00 0.00 68 1008.0
20260505204627 74 270 4.0 7.0 0.00 0.00 0.00 68 1008.0
20260505204125 75 330 2.0 3.0 0.00 0.00 0.00 67 1008.0
20260505203621 75 325 3.0 4.0 0.00 0.00 0.00 66 1008.0
20260505203119 76 305 5.0 7.0 0.00 0.00 0.00 65 1007.9
20260505202614 77 356 5.0 7.0 0.00 0.00 0.00 64 1007.7
20260505202111 78 300 5.0 8.0 0.00 0.00 0.00 64 1007.4
20260505201607 77 310 1.0 2.0 0.00 0.00 0.00 67 1007.7